Location: Mission Viejo
(33.6000°N, 117.6720°W)
Time: 06:38:42
(UTC+00:00)

Daily predictions for brighter satellites

Satellite Brightness Start Highest point End
(mag) Time Altitude Azimuth Time Altitude Azimuth Time Altitude Azimuth
ALOS 4.4 12:00:40 10° NW 12:01:28 10° WNW 12:02:15 10° WNW
Cosmos 1809 Rocket 4.5 12:03:45 10° NNW 12:09:47 66° W 12:15:49 10° S
Cosmos 1782 3.4 12:09:28 10° NNW 12:12:59 34° W 12:16:28 10° SSW
Cosmos 2151 3.9 12:09:08 10° SSE 12:13:07 50° E 12:17:08 10° NNE
Cosmos 2016 Rocket 4.4 12:09:22 10° S 12:15:32 69° E 12:21:49 10° NNE
